Time,TemperatureF,DewpointF,PressureIn,WindDirection,WindDirectionDegrees,WindSpeedMPH,WindSpeedGustMPH,Humidity,HourlyPrecipIn,Conditions,Clouds,dailyrainin,SoftwareType,DateUTC
2013-10-17 00:02:00,24.5,18.0,30.18,NW,313,0.0,0.0,76,0.00,,,0.00,Wunderground v.1.15,2013-10-17 06:02:00,
2013-10-17 00:07:00,24.4,18.2,30.18,SE,141,3.0,3.0,77,0.00,,,0.00,Wunderground v.1.15,2013-10-17 06:07:00,
2013-10-17 00:13:00,24.3,17.8,30.18,SSE,152,0.0,2.0,76,0.00,,,0.00,Wunderground v.1.15,2013-10-17 06:13:00,
2013-10-17 00:18:00,24.1,17.0,30.18,NW,304,4.0,4.0,74,0.00,,,0.00,Wunderground v.1.15,2013-10-17 06:18:00,
2013-10-17 00:23:00,23.9,17.1,30.18,WNW,302,0.0,1.0,75,0.00,,,0.00,Wunderground v.1.15,2013-10-17 06:23:00,
2013-10-17 00:28:00,23.6,16.8,30.18,WNW,302,0.0,1.0,75,0.00,,,0.00,Wunderground v.1.15,2013-10-17 06:28:00,
2013-10-17 00:33:00,23.4,16.6,30.18,WNW,302,2.0,2.0,75,0.00,,,0.00,Wunderground v.1.15,2013-10-17 06:33:00,
2013-10-17 00:39:00,22.9,16.5,30.18,NW,304,0.0,2.0,76,0.00,,,0.00,Wunderground v.1.15,2013-10-17 06:39:00,
2013-10-17 00:44:00,22.7,16.3,30.18,SSE,165,2.0,2.0,76,0.00,,,0.00,Wunderground v.1.15,2013-10-17 06:44:00,
2013-10-17 00:49:00,22.6,17.1,30.18,West,260,1.0,3.0,79,0.00,,,0.00,Wunderground v.1.15,2013-10-17 06:49:00,
2013-10-17 00:54:00,22.8,17.6,30.19,SSW,204,1.0,1.0,80,0.00,,,0.00,Wunderground v.1.15,2013-10-17 06:54:00,
2013-10-17 00:59:00,23.1,17.6,30.19,West,269,0.0,1.0,79,0.00,,,0.00,Wunderground v.1.15,2013-10-17 06:59:00,
2013-10-17 01:05:00,23.0,17.7,30.19,NNW,327,0.0,2.0,80,0.00,,,0.00,Wunderground v.1.15,2013-10-17 07:05:00,
2013-10-17 01:10:00,23.0,17.5,30.19,NE,51,0.0,1.0,79,0.00,,,0.00,Wunderground v.1.15,2013-10-17 07:10:00,
2013-10-17 01:15:00,23.1,17.3,30.19,NNW,331,1.0,4.0,78,0.00,,,0.00,Wunderground v.1.15,2013-10-17 07:15:00,
2013-10-17 01:20:00,23.1,17.3,30.19,NNW,332,0.0,1.0,78,0.00,,,0.00,Wunderground v.1.15,2013-10-17 07:20:00,
2013-10-17 01:25:00,23.1,17.6,30.18,North,355,3.0,5.0,79,0.00,,,0.00,Wunderground v.1.15,2013-10-17 07:25:00,
2013-10-17 01:31:00,23.1,18.1,30.18,North,349,3.0,3.0,81,0.00,,,0.00,Wunderground v.1.15,2013-10-17 07:31:00,
2013-10-17 01:37:00,23.1,18.4,30.18,NNW,339,0.0,3.0,82,0.00,,,0.00,Wunderground v.1.15,2013-10-17 07:37:00,
2013-10-17 01:42:00,23.1,18.4,30.18,NNW,339,0.0,0.0,82,0.00,,,0.00,Wunderground v.1.15,2013-10-17 07:42:00,
2013-10-17 01:47:00,22.9,18.2,30.17,NNW,339,0.0,2.0,82,0.00,,,0.00,Wunderground v.1.15,2013-10-17 07:47:00,
2013-10-17 01:52:00,22.6,17.9,30.17,NNW,339,0.0,1.0,82,0.00,,,0.00,Wunderground v.1.15,2013-10-17 07:52:00,
2013-10-17 01:58:00,22.3,17.6,30.17,NNW,339,0.0,1.0,82,0.00,,,0.00,Wunderground v.1.15,2013-10-17 07:58:00,
2013-10-17 02:03:00,22.1,17.2,30.17,SE,130,3.0,3.0,81,0.00,,,0.00,Wunderground v.1.15,2013-10-17 08:03:00,
2013-10-17 02:08:00,22.1,17.2,30.17,ESE,111,0.0,3.0,81,0.00,,,0.00,Wunderground v.1.15,2013-10-17 08:08:00,
2013-10-17 02:13:00,22.0,17.1,30.17,SSE,151,0.0,2.0,81,0.00,,,0.00,Wunderground v.1.15,2013-10-17 08:13:00,
2013-10-17 02:18:00,21.8,16.9,30.17,SE,134,10.0,10.0,81,0.00,,,0.00,Wunderground v.1.15,2013-10-17 08:18:00,
2013-10-17 02:23:00,22.0,16.2,30.17,SSE,153,0.0,9.0,78,0.00,,,0.00,Wunderground v.1.15,2013-10-17 08:23:00,
2013-10-17 02:28:00,22.2,16.4,30.17,SE,146,4.0,9.0,78,0.00,,,0.00,Wunderground v.1.15,2013-10-17 08:28:00,
2013-10-17 02:33:00,22.3,15.6,30.17,ESE,119,4.0,6.0,75,0.00,,,0.00,Wunderground v.1.15,2013-10-17 08:33:00,
2013-10-17 02:38:00,22.3,15.3,30.17,SSE,157,3.0,9.0,74,0.00,,,0.00,Wunderground v.1.15,2013-10-17 08:38:00,
2013-10-17 02:43:00,22.3,15.0,30.17,SSE,156,2.0,12.0,73,0.00,,,0.00,Wunderground v.1.15,2013-10-17 08:43:00,
2013-10-17 02:48:00,22.4,15.1,30.17,SE,146,3.0,12.0,73,0.00,,,0.00,Wunderground v.1.15,2013-10-17 08:48:00,
2013-10-17 02:53:00,22.4,14.7,30.17,South,183,5.0,12.0,72,0.00,,,0.00,Wunderground v.1.15,2013-10-17 08:53:00,
2013-10-17 02:58:00,22.3,14.3,30.17,South,182,2.0,12.0,71,0.00,,,0.00,Wunderground v.1.15,2013-10-17 08:58:00,
2013-10-17 03:03:00,22.3,14.3,30.17,ESE,123,4.0,8.0,71,0.00,,,0.00,Wunderground v.1.15,2013-10-17 09:03:00,
2013-10-17 03:08:00,22.3,14.3,30.17,SE,130,5.0,10.0,71,0.00,,,0.00,Wunderground v.1.15,2013-10-17 09:08:00,
2013-10-17 03:13:00,22.2,13.9,30.17,SE,132,4.0,10.0,70,0.00,,,0.00,Wunderground v.1.15,2013-10-17 09:13:00,
2013-10-17 03:18:00,22.1,13.8,30.17,SSE,158,2.0,11.0,70,0.00,,,0.00,Wunderground v.1.15,2013-10-17 09:18:00,
2013-10-17 03:23:00,22.1,13.8,30.16,SSE,150,2.0,8.0,70,0.00,,,0.00,Wunderground v.1.15,2013-10-17 09:23:00,
2013-10-17 03:28:00,22.1,13.8,30.16,SE,130,7.0,9.0,70,0.00,,,0.00,Wunderground v.1.15,2013-10-17 09:28:00,
2013-10-17 03:33:00,22.3,14.0,30.16,SE,131,5.0,12.0,70,0.00,,,0.00,Wunderground v.1.15,2013-10-17 09:33:00,
2013-10-17 03:38:00,22.3,13.7,30.16,SE,130,4.0,12.0,69,0.00,,,0.00,Wunderground v.1.15,2013-10-17 09:38:00,
2013-10-17 03:43:00,22.4,13.8,30.16,SE,126,3.0,5.0,69,0.00,,,0.00,Wunderground v.1.15,2013-10-17 09:43:00,
2013-10-17 03:48:00,22.6,14.0,30.16,ESE,117,5.0,8.0,69,0.00,,,0.00,Wunderground v.1.15,2013-10-17 09:48:00,
2013-10-17 03:53:00,22.6,13.6,30.16,SE,144,5.0,11.0,68,0.00,,,0.00,Wunderground v.1.15,2013-10-17 09:53:00,
2013-10-17 03:58:00,22.5,13.5,30.16,SE,135,7.0,11.0,68,0.00,,,0.00,Wunderground v.1.15,2013-10-17 09:58:00,
2013-10-17 04:03:00,22.6,13.6,30.15,ESE,115,1.0,5.0,68,0.00,,,0.00,Wunderground v.1.15,2013-10-17 10:03:00,
2013-10-17 04:08:00,22.6,13.6,30.15,SE,128,5.0,9.0,68,0.00,,,0.00,Wunderground v.1.15,2013-10-17 10:08:00,
2013-10-17 04:13:00,22.5,13.5,30.15,SE,126,2.0,6.0,68,0.00,,,0.00,Wunderground v.1.15,2013-10-17 10:13:00,
2013-10-17 04:18:00,22.6,13.6,30.16,ESE,122,0.0,7.0,68,0.00,,,0.00,Wunderground v.1.15,2013-10-17 10:18:00,
2013-10-17 04:23:00,22.6,14.0,30.16,SE,137,0.0,6.0,69,0.00,,,0.00,Wunderground v.1.15,2013-10-17 10:23:00,
2013-10-17 04:28:00,22.7,14.1,30.16,ESE,117,3.0,8.0,69,0.00,,,0.00,Wunderground v.1.15,2013-10-17 10:28:00,
2013-10-17 04:33:00,22.7,14.1,30.16,SE,136,5.0,7.0,69,0.00,,,0.00,Wunderground v.1.15,2013-10-17 10:33:00,
2013-10-17 04:38:00,22.7,14.1,30.16,ESE,117,1.0,8.0,69,0.00,,,0.00,Wunderground v.1.15,2013-10-17 10:38:00,
2013-10-17 04:43:00,22.6,14.0,30.16,SE,133,5.0,8.0,69,0.00,,,0.00,Wunderground v.1.15,2013-10-17 10:43:00,
2013-10-17 04:48:00,22.3,13.7,30.16,South,188,5.0,9.0,69,0.00,,,0.00,Wunderground v.1.15,2013-10-17 10:48:00,
2013-10-17 04:53:00,22.2,13.6,30.16,SSW,200,0.0,3.0,69,0.00,,,0.00,Wunderground v.1.15,2013-10-17 10:53:00,
2013-10-17 04:58:00,22.1,14.1,30.17,NW,309,0.0,4.0,71,0.00,,,0.00,Wunderground v.1.15,2013-10-17 10:58:00,
2013-10-17 05:03:00,22.0,14.7,30.17,NW,309,0.0,1.0,73,0.00,,,0.00,Wunderground v.1.15,2013-10-17 11:03:00,
2013-10-17 05:08:00,21.8,15.1,30.17,NW,309,0.0,1.0,75,0.00,,,0.00,Wunderground v.1.15,2013-10-17 11:08:00,
2013-10-17 05:13:00,21.5,15.1,30.17,SSW,192,0.0,2.0,76,0.00,,,0.00,Wunderground v.1.15,2013-10-17 11:13:00,
2013-10-17 05:18:00,21.3,15.2,30.17,SE,146,1.0,2.0,77,0.00,,,0.00,Wunderground v.1.15,2013-10-17 11:18:00,
2013-10-17 05:23:00,21.2,15.1,30.17,SSE,165,3.0,5.0,77,0.00,,,0.00,Wunderground v.1.15,2013-10-17 11:23:00,
2013-10-17 05:28:00,21.3,14.6,30.17,SSE,161,4.0,7.0,75,0.00,,,0.00,Wunderground v.1.15,2013-10-17 11:28:00,
2013-10-17 05:33:00,21.4,14.1,30.17,SSE,161,0.0,5.0,73,0.00,,,0.00,Wunderground v.1.15,2013-10-17 11:33:00,
2013-10-17 05:38:00,21.4,13.8,30.17,SSE,161,5.0,9.0,72,0.00,,,0.00,Wunderground v.1.15,2013-10-17 11:38:00,
2013-10-17 05:43:00,21.4,13.8,30.17,SW,231,4.0,5.0,72,0.00,,,0.00,Wunderground v.1.15,2013-10-17 11:43:00,
2013-10-17 05:48:00,21.5,14.2,30.17,South,176,0.0,5.0,73,0.00,,,0.00,Wunderground v.1.15,2013-10-17 11:48:00,
2013-10-17 05:53:00,21.5,14.2,30.17,WSW,239,0.0,3.0,73,0.00,,,0.00,Wunderground v.1.15,2013-10-17 11:53:00,
2013-10-17 05:58:00,21.5,14.8,30.17,WSW,239,0.0,3.0,75,0.00,,,0.00,Wunderground v.1.15,2013-10-17 11:58:00,
2013-10-17 06:03:00,21.3,14.9,30.17,SW,225,1.0,3.0,76,0.00,,,0.00,Wunderground v.1.15,2013-10-17 12:03:00,
2013-10-17 06:08:00,21.3,15.2,30.18,SW,218,0.0,3.0,77,0.00,,,0.00,Wunderground v.1.15,2013-10-17 12:08:00,
2013-10-17 06:13:00,21.3,15.5,30.18,SW,221,0.0,3.0,78,0.00,,,0.00,Wunderground v.1.15,2013-10-17 12:13:00,
2013-10-17 06:19:00,21.3,15.8,30.18,SW,221,0.0,3.0,79,0.00,,,0.00,Wunderground v.1.15,2013-10-17 12:19:00,
2013-10-17 06:24:00,21.2,16.0,30.18,SW,221,0.0,1.0,80,0.00,,,0.00,Wunderground v.1.15,2013-10-17 12:24:00,
2013-10-17 06:29:00,21.0,15.8,30.18,SW,221,0.0,2.0,80,0.00,,,0.00,Wunderground v.1.15,2013-10-17 12:29:00,
2013-10-17 06:34:00,20.7,15.5,30.18,SW,221,0.0,0.0,80,0.00,,,0.00,Wunderground v.1.15,2013-10-17 12:34:00,
2013-10-17 06:39:00,20.6,15.4,30.17,SW,221,0.0,0.0,80,0.00,,,0.00,Wunderground v.1.15,2013-10-17 12:39:00,
2013-10-17 06:44:00,20.3,15.1,30.17,SW,221,0.0,0.0,80,0.00,,,0.00,Wunderground v.1.15,2013-10-17 12:44:00,
2013-10-17 06:49:00,20.0,15.1,30.18,SW,221,0.0,1.0,81,0.00,,,0.00,Wunderground v.1.15,2013-10-17 12:49:00,
2013-10-17 06:54:00,19.9,15.0,30.17,SW,221,0.0,1.0,81,0.00,,,0.00,Wunderground v.1.15,2013-10-17 12:54:00,
2013-10-17 06:59:00,19.8,15.2,30.18,SW,221,0.0,2.0,82,0.00,,,0.00,Wunderground v.1.15,2013-10-17 12:59:00,
2013-10-17 07:04:00,19.8,15.5,30.18,SW,221,1.0,2.0,83,0.00,,,0.00,Wunderground v.1.15,2013-10-17 13:04:00,
2013-10-17 07:09:00,19.7,15.4,30.18,SW,221,0.0,2.0,83,0.00,,,0.00,Wunderground v.1.15,2013-10-17 13:09:00,
2013-10-17 07:14:00,19.6,15.3,30.18,SW,221,0.0,2.0,83,0.00,,,0.00,Wunderground v.1.15,2013-10-17 13:14:00,
2013-10-17 07:19:00,19.5,15.2,30.18,SW,221,0.0,2.0,83,0.00,,,0.00,Wunderground v.1.15,2013-10-17 13:19:00,
2013-10-17 07:24:00,19.4,15.1,30.18,SW,221,0.0,1.0,83,0.00,,,0.00,Wunderground v.1.15,2013-10-17 13:24:00,
2013-10-17 07:29:00,19.3,15.3,30.18,SW,221,0.0,1.0,84,0.00,,,0.00,Wunderground v.1.15,2013-10-17 13:29:00,
2013-10-17 07:34:00,19.3,15.5,30.17,SW,221,0.0,1.0,85,0.00,,,0.00,Wunderground v.1.15,2013-10-17 13:34:00,
2013-10-17 07:39:00,19.3,15.5,30.17,SW,221,0.0,1.0,85,0.00,,,0.00,Wunderground v.1.15,2013-10-17 13:39:00,
2013-10-17 07:44:00,19.4,15.6,30.17,SW,221,2.0,2.0,85,0.00,,,0.00,Wunderground v.1.15,2013-10-17 13:44:00,
2013-10-17 07:49:00,19.5,15.7,30.17,SW,230,1.0,3.0,85,0.00,,,0.00,Wunderground v.1.15,2013-10-17 13:49:00,
2013-10-17 07:54:00,19.7,16.2,30.17,SW,233,0.0,1.0,86,0.00,,,0.00,Wunderground v.1.15,2013-10-17 13:54:00,
2013-10-17 07:59:00,20.0,16.5,30.17,SW,233,0.0,1.0,86,0.00,,,0.00,Wunderground v.1.15,2013-10-17 13:59:00,
2013-10-17 08:04:00,20.4,16.6,30.17,South,173,0.0,3.0,85,0.00,,,0.00,Wunderground v.1.15,2013-10-17 14:04:00,
2013-10-17 08:09:00,20.9,17.1,30.18,SE,125,1.0,3.0,85,0.00,,,0.00,Wunderground v.1.15,2013-10-17 14:09:00,
2013-10-17 08:14:00,21.5,17.4,30.18,SE,125,0.0,1.0,84,0.00,,,0.00,Wunderground v.1.15,2013-10-17 14:14:00,
2013-10-17 08:19:00,22.1,17.7,30.18,ESE,115,0.0,3.0,83,0.00,,,0.00,Wunderground v.1.15,2013-10-17 14:19:00,
2013-10-17 08:24:00,22.9,17.9,30.19,ESE,110,0.0,3.0,81,0.00,,,0.00,Wunderground v.1.15,2013-10-17 14:24:00,
2013-10-17 08:29:00,23.9,18.3,30.19,East,101,0.0,3.0,79,0.00,,,0.00,Wunderground v.1.15,2013-10-17 14:29:00,
2013-10-17 08:34:00,24.7,18.5,30.19,East,101,0.0,1.0,77,0.00,,,0.00,Wunderground v.1.15,2013-10-17 14:34:00,
2013-10-17 08:39:00,25.6,19.1,30.19,ENE,70,0.0,3.0,76,0.00,,,0.00,Wunderground v.1.15,2013-10-17 14:39:00,
2013-10-17 08:44:00,26.3,19.5,30.18,SE,138,0.0,2.0,75,0.00,,,0.00,Wunderground v.1.15,2013-10-17 14:44:00,
2013-10-17 08:49:00,26.7,19.2,30.18,East,81,0.0,3.0,73,0.00,,,0.00,Wunderground v.1.15,2013-10-17 14:49:00,
2013-10-17 08:54:00,26.9,19.4,30.18,SSE,149,2.0,3.0,73,0.00,,,0.00,Wunderground v.1.15,2013-10-17 14:54:00,
2013-10-17 08:59:00,27.1,19.6,30.19,SSE,149,0.0,3.0,73,0.00,,,0.00,Wunderground v.1.15,2013-10-17 14:59:00,
2013-10-17 09:04:00,27.3,18.8,30.18,South,178,0.0,3.0,70,0.00,,,0.00,Wunderground v.1.15,2013-10-17 15:04:00,
2013-10-17 09:09:00,27.5,18.3,30.19,South,178,0.0,3.0,68,0.00,,,0.00,Wunderground v.1.15,2013-10-17 15:09:00,
2013-10-17 09:14:00,27.7,18.2,30.18,SSE,165,1.0,4.0,67,0.00,,,0.00,Wunderground v.1.15,2013-10-17 15:14:00,
2013-10-17 09:19:00,28.1,18.5,30.18,SE,143,2.0,5.0,67,0.00,,,0.00,Wunderground v.1.15,2013-10-17 15:19:00,
2013-10-17 09:24:00,28.8,18.9,30.18,SE,143,0.0,3.0,66,0.00,,,0.00,Wunderground v.1.15,2013-10-17 15:24:00,
2013-10-17 09:29:00,29.1,18.8,30.18,SSE,160,1.0,3.0,65,0.00,,,0.00,Wunderground v.1.15,2013-10-17 15:29:00,
2013-10-17 09:34:00,29.6,19.3,30.17,SSE,148,1.0,2.0,65,0.00,,,0.00,Wunderground v.1.15,2013-10-17 15:34:00,
2013-10-17 09:39:00,30.5,20.5,30.17,ESE,109,0.0,4.0,66,0.00,,,0.00,Wunderground v.1.15,2013-10-17 15:39:00,
2013-10-17 09:44:00,31.4,21.0,30.16,NE,45,3.0,5.0,65,0.00,,,0.00,Wunderground v.1.15,2013-10-17 15:44:00,
2013-10-17 09:49:00,32.5,21.7,30.16,NE,47,0.0,5.0,64,0.00,,,0.00,Wunderground v.1.15,2013-10-17 15:49:00,
2013-10-17 09:54:00,33.8,21.8,30.16,East,79,0.0,5.0,61,0.00,,,0.00,Wunderground v.1.15,2013-10-17 15:54:00,
2013-10-17 09:59:00,34.8,21.1,30.15,SW,214,1.0,8.0,57,0.00,,,0.00,Wunderground v.1.15,2013-10-17 15:59:00,
2013-10-17 10:04:00,35.5,20.5,30.14,West,264,5.0,9.0,54,0.00,,,0.00,Wunderground v.1.15,2013-10-17 16:04:00,
2013-10-17 10:09:00,35.6,20.1,30.14,SE,145,5.0,12.0,53,0.00,,,0.00,Wunderground v.1.15,2013-10-17 16:09:00,
2013-10-17 10:14:00,36.1,20.6,30.14,ESE,122,4.0,10.0,53,0.00,,,0.00,Wunderground v.1.15,2013-10-17 16:14:00,
2013-10-17 10:19:00,36.3,19.9,30.14,SE,131,6.0,14.0,51,0.00,,,0.00,Wunderground v.1.15,2013-10-17 16:19:00,
2013-10-17 10:24:00,36.4,20.0,30.14,SSE,149,3.0,14.0,51,0.00,,,0.00,Wunderground v.1.15,2013-10-17 16:24:00,
2013-10-17 10:29:00,36.9,20.4,30.14,ESE,107,1.0,14.0,51,0.00,,,0.00,Wunderground v.1.15,2013-10-17 16:29:00,
2013-10-17 10:34:00,37.4,20.0,30.14,SSE,155,4.0,14.0,49,0.00,,,0.00,Wunderground v.1.15,2013-10-17 16:34:00,
2013-10-17 10:39:00,37.7,20.2,30.13,SE,138,6.0,17.0,49,0.00,,,0.00,Wunderground v.1.15,2013-10-17 16:39:00,
2013-10-17 10:44:00,38.2,20.2,30.13,SSE,152,2.0,10.0,48,0.00,,,0.00,Wunderground v.1.15,2013-10-17 16:44:00,
2013-10-17 10:49:00,38.6,20.1,30.13,SE,138,4.0,10.0,47,0.00,,,0.00,Wunderground v.1.15,2013-10-17 16:49:00,
2013-10-17 10:54:00,39.1,20.5,30.13,SSE,148,0.0,11.0,47,0.00,,,0.00,Wunderground v.1.15,2013-10-17 16:54:00,
2013-10-17 10:59:00,39.6,20.5,30.13,South,188,5.0,11.0,46,0.00,,,0.00,Wunderground v.1.15,2013-10-17 16:59:00,
2013-10-17 11:04:00,39.7,20.1,30.13,South,175,3.0,7.0,45,0.00,,,0.00,Wunderground v.1.15,2013-10-17 17:04:00,
2013-10-17 11:09:00,39.6,20.0,30.13,SE,129,5.0,7.0,45,0.00,,,0.00,Wunderground v.1.15,2013-10-17 17:09:00,
2013-10-17 11:14:00,39.4,19.8,30.12,North,5,7.0,12.0,45,0.00,,,0.00,Wunderground v.1.15,2013-10-17 17:14:00,
2013-10-17 11:19:00,38.9,18.8,30.13,SE,145,2.0,12.0,44,0.00,,,0.00,Wunderground v.1.15,2013-10-17 17:19:00,
2013-10-17 11:24:00,38.5,19.0,30.12,ESE,114,8.0,13.0,45,0.00,,,0.00,Wunderground v.1.15,2013-10-17 17:24:00,
2013-10-17 11:29:00,38.4,18.9,30.11,North,5,3.0,13.0,45,0.00,,,0.00,Wunderground v.1.15,2013-10-17 17:29:00,
2013-10-17 11:34:00,38.6,18.5,30.12,SSE,147,2.0,6.0,44,0.00,,,0.00,Wunderground v.1.15,2013-10-17 17:34:00,
2013-10-17 11:39:00,38.7,18.6,30.12,South,171,4.0,12.0,44,0.00,,,0.00,Wunderground v.1.15,2013-10-17 17:39:00,
2013-10-17 11:44:00,38.7,18.6,30.11,SSE,153,6.0,8.0,44,0.00,,,0.00,Wunderground v.1.15,2013-10-17 17:44:00,
2013-10-17 11:49:00,39.3,19.7,30.11,ESE,113,7.0,10.0,45,0.00,,,0.00,Wunderground v.1.15,2013-10-17 17:49:00,
2013-10-17 11:54:00,39.7,19.0,30.10,NE,39,7.0,7.0,43,0.00,,,0.00,Wunderground v.1.15,2013-10-17 17:54:00,
2013-10-17 11:59:00,39.9,18.6,30.10,ESE,118,2.0,15.0,42,0.00,,,0.00,Wunderground v.1.15,2013-10-17 17:59:00,
2013-10-17 12:04:00,40.2,17.8,30.10,SSW,202,1.0,7.0,40,0.00,,,0.00,Wunderground v.1.15,2013-10-17 18:04:00,
2013-10-17 12:09:00,40.1,15.2,30.10,WSW,254,7.0,9.0,36,0.00,,,0.00,Wunderground v.1.15,2013-10-17 18:09:00,
2013-10-17 12:14:00,40.5,15.0,30.10,SW,216,3.0,7.0,35,0.00,,,0.00,Wunderground v.1.15,2013-10-17 18:14:00,
2013-10-17 12:19:00,40.8,14.6,30.09,SW,229,2.0,7.0,34,0.00,,,0.00,Wunderground v.1.15,2013-10-17 18:19:00,
2013-10-17 12:24:00,40.9,15.3,30.10,SSW,193,3.0,10.0,35,0.00,,,0.00,Wunderground v.1.15,2013-10-17 18:24:00,
2013-10-17 12:29:00,40.9,15.3,30.10,SE,143,4.0,10.0,35,0.00,,,0.00,Wunderground v.1.15,2013-10-17 18:29:00,
2013-10-17 12:34:00,41.0,15.4,30.09,West,274,3.0,9.0,35,0.00,,,0.00,Wunderground v.1.15,2013-10-17 18:34:00,
2013-10-17 12:39:00,41.0,15.4,30.09,ESE,102,3.0,9.0,35,0.00,,,0.00,Wunderground v.1.15,2013-10-17 18:39:00,
2013-10-17 12:44:00,40.9,15.3,30.09,SW,227,3.0,9.0,35,0.00,,,0.00,Wunderground v.1.15,2013-10-17 18:44:00,
2013-10-17 12:49:00,41.0,15.4,30.09,SE,145,4.0,9.0,35,0.00,,,0.00,Wunderground v.1.15,2013-10-17 18:49:00,
2013-10-17 12:54:00,40.7,14.5,30.08,SSE,162,2.0,6.0,34,0.00,,,0.00,Wunderground v.1.15,2013-10-17 18:54:00,
2013-10-17 12:59:00,40.6,13.0,30.08,West,259,4.0,9.0,32,0.00,,,0.00,Wunderground v.1.15,2013-10-17 18:59:00,
2013-10-17 13:04:00,40.2,11.9,30.08,South,178,5.0,7.0,31,0.00,,,0.00,Wunderground v.1.15,2013-10-17 19:04:00,
2013-10-17 13:09:00,40.7,13.8,30.08,SSE,161,7.0,13.0,33,0.00,,,0.00,Wunderground v.1.15,2013-10-17 19:09:00,
2013-10-17 13:14:00,41.2,14.2,30.08,SSE,148,11.0,15.0,33,0.00,,,0.00,Wunderground v.1.15,2013-10-17 19:14:00,
2013-10-17 13:19:00,41.5,14.5,30.07,West,261,3.0,15.0,33,0.00,,,0.00,Wunderground v.1.15,2013-10-17 19:19:00,
2013-10-17 13:24:00,41.7,13.2,30.06,WSW,246,5.0,11.0,31,0.00,,,0.00,Wunderground v.1.15,2013-10-17 19:24:00,
2013-10-17 13:29:00,41.5,11.6,30.06,SSW,202,0.0,11.0,29,0.00,,,0.00,Wunderground v.1.15,2013-10-17 19:29:00,
2013-10-17 13:31:00,41.6,12.4,30.06,SW,225,3.0,8.0,30,0.00,,,0.00,Wunderground v.1.15,2013-10-17 19:31:00,
2013-10-17 13:36:00,41.6,9.2,30.06,SW,229,10.0,10.0,26,0.00,,,0.00,Wunderground v.1.15,2013-10-17 19:36:00,
2013-10-17 13:41:00,41.5,9.1,30.06,WSW,253,2.0,3.0,26,0.00,,,0.00,Wunderground v.1.15,2013-10-17 19:41:00,
2013-10-17 13:46:00,41.5,9.1,30.05,South,183,1.0,7.0,26,0.00,,,0.00,Wunderground v.1.15,2013-10-17 19:46:00,
2013-10-17 13:51:00,42.1,10.5,30.06,ESE,123,4.0,11.0,27,0.00,,,0.00,Wunderground v.1.15,2013-10-17 19:51:00,
2013-10-17 13:56:00,42.2,9.7,30.05,NW,317,3.0,11.0,26,0.00,,,0.00,Wunderground v.1.15,2013-10-17 19:56:00,
2013-10-17 14:01:00,41.7,10.9,30.05,SE,140,5.0,7.0,28,0.00,,,0.00,Wunderground v.1.15,2013-10-17 20:01:00,
2013-10-17 14:06:00,41.5,10.8,30.05,WSW,252,4.0,9.0,28,0.00,,,0.00,Wunderground v.1.15,2013-10-17 20:06:00,
2013-10-17 14:11:00,41.5,10.8,30.05,South,171,3.0,3.0,28,0.00,,,0.00,Wunderground v.1.15,2013-10-17 20:11:00,
2013-10-17 14:16:00,41.7,10.9,30.05,SSE,155,2.0,9.0,28,0.00,,,0.00,Wunderground v.1.15,2013-10-17 20:16:00,
2013-10-17 14:21:00,41.7,11.7,30.05,WSW,249,4.0,6.0,29,0.00,,,0.00,Wunderground v.1.15,2013-10-17 20:21:00,
2013-10-17 14:26:00,41.7,12.5,30.05,SSE,150,11.0,11.0,30,0.00,,,0.00,Wunderground v.1.15,2013-10-17 20:26:00,
2013-10-17 14:31:00,41.8,13.3,30.04,SE,128,3.0,10.0,31,0.00,,,0.00,Wunderground v.1.15,2013-10-17 20:31:00,
2013-10-17 14:36:00,41.8,14.1,30.04,SE,126,4.0,10.0,32,0.00,,,0.00,Wunderground v.1.15,2013-10-17 20:36:00,
2013-10-17 14:41:00,42.0,13.5,30.04,SE,128,5.0,8.0,31,0.00,,,0.00,Wunderground v.1.15,2013-10-17 20:41:00,
2013-10-17 14:46:00,42.2,13.7,30.04,SSW,195,2.0,10.0,31,0.00,,,0.00,Wunderground v.1.15,2013-10-17 20:46:00,
2013-10-17 14:51:00,41.8,12.6,30.04,SW,231,7.0,13.0,30,0.00,,,0.00,Wunderground v.1.15,2013-10-17 20:51:00,
2013-10-17 14:56:00,41.5,13.1,30.04,SW,235,4.0,13.0,31,0.00,,,0.00,Wunderground v.1.15,2013-10-17 20:56:00,
2013-10-17 15:01:00,41.9,14.1,30.03,SW,222,1.0,9.0,32,0.00,,,0.00,Wunderground v.1.15,2013-10-17 21:01:00,
2013-10-17 15:06:00,41.9,13.4,30.03,SSE,167,2.0,9.0,31,0.00,,,0.00,Wunderground v.1.15,2013-10-17 21:06:00,
2013-10-17 15:11:00,41.8,14.1,30.03,South,186,5.0,8.0,32,0.00,,,0.00,Wunderground v.1.15,2013-10-17 21:11:00,
2013-10-17 15:16:00,41.7,14.7,30.03,South,177,1.0,14.0,33,0.00,,,0.00,Wunderground v.1.15,2013-10-17 21:16:00,
2013-10-17 15:21:00,41.8,14.8,30.03,SSE,159,6.0,9.0,33,0.00,,,0.00,Wunderground v.1.15,2013-10-17 21:21:00,
2013-10-17 15:26:00,41.5,15.2,30.03,WSW,249,4.0,10.0,34,0.00,,,0.00,Wunderground v.1.15,2013-10-17 21:26:00,
2013-10-17 15:31:00,41.1,14.1,30.03,SW,236,1.0,7.0,33,0.00,,,0.00,Wunderground v.1.15,2013-10-17 21:31:00,
2013-10-17 15:36:00,40.9,14.6,30.03,South,173,0.0,9.0,34,0.00,,,0.00,Wunderground v.1.15,2013-10-17 21:36:00,
2013-10-17 15:41:00,41.0,16.0,30.03,West,264,6.0,6.0,36,0.00,,,0.00,Wunderground v.1.15,2013-10-17 21:41:00,
2013-10-17 15:46:00,41.1,14.8,30.03,WSW,240,1.0,7.0,34,0.00,,,0.00,Wunderground v.1.15,2013-10-17 21:46:00,
2013-10-17 15:51:00,40.9,14.6,30.03,WSW,241,9.0,15.0,34,0.00,,,0.00,Wunderground v.1.15,2013-10-17 21:51:00,
2013-10-17 15:56:00,40.5,14.3,30.03,WSW,246,6.0,15.0,34,0.00,,,0.00,Wunderground v.1.15,2013-10-17 21:56:00,
2013-10-17 16:01:00,40.4,13.5,30.03,WSW,237,1.0,4.0,33,0.00,,,0.00,Wunderground v.1.15,2013-10-17 22:01:00,
2013-10-17 16:06:00,40.6,14.4,30.03,West,259,1.0,8.0,34,0.00,,,0.00,Wunderground v.1.15,2013-10-17 22:06:00,
2013-10-17 16:11:00,40.6,13.7,30.02,SSW,203,2.0,2.0,33,0.00,,,0.00,Wunderground v.1.15,2013-10-17 22:11:00,
2013-10-17 16:16:00,40.5,13.6,30.02,SW,236,2.0,9.0,33,0.00,,,0.00,Wunderground v.1.15,2013-10-17 22:16:00,
2013-10-17 16:21:00,40.6,13.7,30.02,West,260,6.0,9.0,33,0.00,,,0.00,Wunderground v.1.15,2013-10-17 22:21:00,
2013-10-17 16:26:00,40.5,13.6,30.01,SW,233,1.0,10.0,33,0.00,,,0.00,Wunderground v.1.15,2013-10-17 22:26:00,
2013-10-17 16:31:00,40.6,13.7,30.01,SSW,194,3.0,6.0,33,0.00,,,0.00,Wunderground v.1.15,2013-10-17 22:31:00,
2013-10-17 16:36:00,40.3,12.7,30.01,West,265,3.0,7.0,32,0.00,,,0.00,Wunderground v.1.15,2013-10-17 22:36:00,
2013-10-17 16:41:00,40.1,13.3,30.01,WSW,252,6.0,6.0,33,0.00,,,0.00,Wunderground v.1.15,2013-10-17 22:41:00,
2013-10-17 16:46:00,40.1,13.9,30.01,SW,235,4.0,6.0,34,0.00,,,0.00,Wunderground v.1.15,2013-10-17 22:46:00,
2013-10-17 16:51:00,39.8,14.3,30.01,SSE,163,1.0,6.0,35,0.00,,,0.00,Wunderground v.1.15,2013-10-17 22:51:00,
2013-10-17 16:56:00,39.6,14.2,30.01,WSW,237,2.0,6.0,35,0.00,,,0.00,Wunderground v.1.15,2013-10-17 22:56:00,
2013-10-17 17:01:00,39.2,13.8,30.01,SW,231,6.0,9.0,35,0.00,,,0.00,Wunderground v.1.15,2013-10-17 23:01:00,
2013-10-17 17:06:00,38.6,13.3,30.01,SSW,194,0.0,13.0,35,0.00,,,0.00,Wunderground v.1.15,2013-10-17 23:06:00,
2013-10-17 17:11:00,38.3,13.6,30.01,SW,229,0.0,7.0,36,0.00,,,0.00,Wunderground v.1.15,2013-10-17 23:11:00,
2013-10-17 17:16:00,38.0,13.4,30.01,SSW,211,3.0,16.0,36,0.00,,,0.00,Wunderground v.1.15,2013-10-17 23:16:00,
2013-10-17 17:21:00,37.7,14.3,30.01,SSE,152,0.0,3.0,38,0.00,,,0.00,Wunderground v.1.15,2013-10-17 23:21:00,
2013-10-17 17:26:00,37.5,14.2,30.01,WSW,239,4.0,5.0,38,0.00,,,0.00,Wunderground v.1.15,2013-10-17 23:26:00,
2013-10-17 17:31:00,37.3,14.6,30.01,SW,222,1.0,2.0,39,0.00,,,0.00,Wunderground v.1.15,2013-10-17 23:31:00,
2013-10-17 17:36:00,37.1,15.5,30.01,SSW,202,5.0,11.0,41,0.00,,,0.00,Wunderground v.1.15,2013-10-17 23:36:00,
2013-10-17 17:41:00,36.9,15.4,30.01,WSW,244,2.0,4.0,41,0.00,,,0.00,Wunderground v.1.15,2013-10-17 23:41:00,
2013-10-17 17:46:00,36.8,15.8,30.01,SW,223,2.0,5.0,42,0.00,,,0.00,Wunderground v.1.15,2013-10-17 23:46:00,
2013-10-17 17:51:00,36.5,16.1,30.01,SW,228,0.0,1.0,43,0.00,,,0.00,Wunderground v.1.15,2013-10-17 23:51:00,
2013-10-17 17:56:00,36.2,15.8,30.01,SW,223,3.0,3.0,43,0.00,,,0.00,Wunderground v.1.15,2013-10-17 23:56:00,
2013-10-17 18:01:00,36.1,16.3,30.01,SW,221,0.0,1.0,44,0.00,,,0.00,Wunderground v.1.15,2013-10-18 00:01:00,
2013-10-17 18:06:00,36.0,16.2,30.01,SW,221,0.0,3.0,44,0.00,,,0.00,Wunderground v.1.15,2013-10-18 00:06:00,
2013-10-17 18:11:00,35.7,15.9,30.01,SSE,160,0.0,3.0,44,0.00,,,0.00,Wunderground v.1.15,2013-10-18 00:11:00,
2013-10-17 18:16:00,35.6,15.8,30.01,South,180,2.0,4.0,44,0.00,,,0.00,Wunderground v.1.15,2013-10-18 00:16:00,
2013-10-17 18:21:00,35.6,15.8,30.01,SSW,213,0.0,2.0,44,0.00,,,0.00,Wunderground v.1.15,2013-10-18 00:21:00,
2013-10-17 18:26:00,35.7,15.9,30.01,SW,229,1.0,5.0,44,0.00,,,0.00,Wunderground v.1.15,2013-10-18 00:26:00,
2013-10-17 18:31:00,35.6,15.8,30.01,South,185,0.0,2.0,44,0.00,,,0.00,Wunderground v.1.15,2013-10-18 00:31:00,
2013-10-17 18:36:00,35.4,15.6,30.01,SSE,153,1.0,4.0,44,0.00,,,0.00,Wunderground v.1.15,2013-10-18 00:36:00,
2013-10-17 18:41:00,35.2,14.9,30.01,SW,225,2.0,5.0,43,0.00,,,0.00,Wunderground v.1.15,2013-10-18 00:41:00,
2013-10-17 18:46:00,35.2,14.9,30.01,SW,233,0.0,6.0,43,0.00,,,0.00,Wunderground v.1.15,2013-10-18 00:46:00,
2013-10-17 18:51:00,35.0,14.7,30.02,SSW,192,0.0,2.0,43,0.00,,,0.00,Wunderground v.1.15,2013-10-18 00:51:00,
2013-10-17 18:56:00,34.8,14.0,30.02,WSW,238,3.0,4.0,42,0.00,,,0.00,Wunderground v.1.15,2013-10-18 00:56:00,
2013-10-17 19:01:00,34.7,14.5,30.02,SW,234,0.0,3.0,43,0.00,,,0.00,Wunderground v.1.15,2013-10-18 01:01:00,
2013-10-17 19:06:00,34.4,14.2,30.02,SW,234,1.0,3.0,43,0.00,,,0.00,Wunderground v.1.15,2013-10-18 01:06:00,
2013-10-17 19:11:00,34.4,14.2,30.02,South,175,0.0,1.0,43,0.00,,,0.00,Wunderground v.1.15,2013-10-18 01:11:00,
2013-10-17 19:16:00,34.2,14.0,30.02,SSW,197,1.0,3.0,43,0.00,,,0.00,Wunderground v.1.15,2013-10-18 01:16:00,
2013-10-17 19:21:00,34.1,13.9,30.02,SE,139,2.0,5.0,43,0.00,,,0.00,Wunderground v.1.15,2013-10-18 01:21:00,
2013-10-17 19:26:00,34.1,13.9,30.02,SE,127,0.0,8.0,43,0.00,,,0.00,Wunderground v.1.15,2013-10-18 01:26:00,
2013-10-17 19:31:00,34.1,14.4,30.03,SSW,199,2.0,6.0,44,0.00,,,0.00,Wunderground v.1.15,2013-10-18 01:31:00,
2013-10-17 19:36:00,34.1,14.9,30.03,South,169,2.0,6.0,45,0.00,,,0.00,Wunderground v.1.15,2013-10-18 01:36:00,
2013-10-17 19:41:00,33.9,15.3,30.03,South,184,1.0,3.0,46,0.00,,,0.00,Wunderground v.1.15,2013-10-18 01:41:00,
2013-10-17 19:46:00,34.0,14.9,30.03,WSW,253,2.0,11.0,45,0.00,,,0.00,Wunderground v.1.15,2013-10-18 01:46:00,
2013-10-17 19:51:00,34.1,15.5,30.03,South,176,1.0,2.0,46,0.00,,,0.00,Wunderground v.1.15,2013-10-18 01:51:00,
2013-10-17 19:56:00,33.9,15.3,30.03,SSE,168,0.0,6.0,46,0.00,,,0.00,Wunderground v.1.15,2013-10-18 01:56:00,
2013-10-17 20:01:00,33.8,15.2,30.04,SE,144,0.0,1.0,46,0.00,,,0.00,Wunderground v.1.15,2013-10-18 02:01:00,
2013-10-17 20:06:00,33.5,15.4,30.04,West,261,0.0,4.0,47,0.00,,,0.00,Wunderground v.1.15,2013-10-18 02:06:00,
2013-10-17 20:11:00,33.4,15.3,30.04,SSE,150,1.0,4.0,47,0.00,,,0.00,Wunderground v.1.15,2013-10-18 02:11:00,
2013-10-17 20:16:00,33.2,15.6,30.04,SSE,153,1.0,4.0,48,0.00,,,0.00,Wunderground v.1.15,2013-10-18 02:16:00,
2013-10-17 20:21:00,32.9,15.3,30.04,SE,141,3.0,3.0,48,0.00,,,0.00,Wunderground v.1.15,2013-10-18 02:21:00,
2013-10-17 20:26:00,32.8,15.7,30.04,SSE,148,1.0,3.0,49,0.00,,,0.00,Wunderground v.1.15,2013-10-18 02:26:00,
2013-10-17 20:31:00,32.5,15.9,30.04,West,265,0.0,1.0,50,0.00,,,0.00,Wunderground v.1.15,2013-10-18 02:31:00,
2013-10-17 20:36:00,32.4,15.8,30.04,South,190,1.0,4.0,50,0.00,,,0.00,Wunderground v.1.15,2013-10-18 02:36:00,
2013-10-17 20:41:00,32.4,15.8,30.04,ENE,69,4.0,6.0,50,0.00,,,0.00,Wunderground v.1.15,2013-10-18 02:41:00,
2013-10-17 20:46:00,32.7,16.1,30.04,SSE,148,2.0,6.0,50,0.00,,,0.00,Wunderground v.1.15,2013-10-18 02:46:00,
2013-10-17 20:51:00,32.8,16.2,30.04,SSW,207,1.0,4.0,50,0.00,,,0.00,Wunderground v.1.15,2013-10-18 02:51:00,
2013-10-17 20:56:00,32.9,16.3,30.04,SSE,153,0.0,4.0,50,0.00,,,0.00,Wunderground v.1.15,2013-10-18 02:56:00,
2013-10-17 21:01:00,32.8,16.2,30.04,SSE,153,1.0,2.0,50,0.00,,,0.00,Wunderground v.1.15,2013-10-18 03:01:00,
2013-10-17 21:06:00,32.8,16.6,30.03,WSW,238,3.0,7.0,51,0.00,,,0.00,Wunderground v.1.15,2013-10-18 03:06:00,
2013-10-17 21:11:00,32.9,16.7,30.03,WSW,248,0.0,2.0,51,0.00,,,0.00,Wunderground v.1.15,2013-10-18 03:11:00,
2013-10-17 21:16:00,32.8,17.1,30.03,South,175,0.0,3.0,52,0.00,,,0.00,Wunderground v.1.15,2013-10-18 03:16:00,
2013-10-17 21:21:00,32.7,17.9,30.03,SW,217,1.0,4.0,54,0.00,,,0.00,Wunderground v.1.15,2013-10-18 03:21:00,
2013-10-17 21:26:00,32.6,18.6,30.03,NNW,338,2.0,6.0,56,0.00,,,0.00,Wunderground v.1.15,2013-10-18 03:26:00,
2013-10-17 21:31:00,32.4,18.8,30.03,SSW,201,0.0,4.0,57,0.00,,,0.00,Wunderground v.1.15,2013-10-18 03:31:00,
2013-10-17 21:36:00,32.2,19.1,30.03,SE,144,8.0,9.0,58,0.00,,,0.00,Wunderground v.1.15,2013-10-18 03:36:00,
2013-10-17 21:41:00,32.1,19.0,30.03,South,173,1.0,2.0,58,0.00,,,0.00,Wunderground v.1.15,2013-10-18 03:41:00,
2013-10-17 21:46:00,32.1,19.0,30.02,West,277,3.0,4.0,58,0.00,,,0.00,Wunderground v.1.15,2013-10-18 03:46:00,
2013-10-17 21:51:00,31.9,19.6,30.02,West,269,2.0,2.0,60,0.00,,,0.00,Wunderground v.1.15,2013-10-18 03:51:00,
2013-10-17 21:56:00,31.6,20.1,30.02,West,277,1.0,4.0,62,0.00,,,0.00,Wunderground v.1.15,2013-10-18 03:56:00,
2013-10-17 22:01:00,31.5,20.3,30.02,SW,231,0.0,2.0,63,0.00,,,0.00,Wunderground v.1.15,2013-10-18 04:01:00,
2013-10-17 22:06:00,31.3,20.2,30.02,East,92,5.0,5.0,63,0.00,,,0.00,Wunderground v.1.15,2013-10-18 04:06:00,
2013-10-17 22:11:00,31.3,20.2,30.02,East,93,0.0,3.0,63,0.00,,,0.00,Wunderground v.1.15,2013-10-18 04:11:00,
2013-10-17 22:16:00,31.4,20.6,30.02,SSE,147,10.0,10.0,64,0.00,,,0.00,Wunderground v.1.15,2013-10-18 04:16:00,
2013-10-17 22:21:00,31.3,21.3,30.02,West,261,2.0,3.0,66,0.00,,,0.00,Wunderground v.1.15,2013-10-18 04:21:00,
2013-10-17 22:26:00,31.3,21.3,30.02,SE,132,5.0,8.0,66,0.00,,,0.00,Wunderground v.1.15,2013-10-18 04:26:00,
2013-10-17 22:31:00,31.2,21.5,30.01,West,263,4.0,5.0,67,0.00,,,0.00,Wunderground v.1.15,2013-10-18 04:31:00,
2013-10-17 22:36:00,31.3,21.3,30.01,SW,226,1.0,6.0,66,0.00,,,0.00,Wunderground v.1.15,2013-10-18 04:36:00,
2013-10-17 22:41:00,31.4,21.7,30.01,WSW,253,2.0,4.0,67,0.00,,,0.00,Wunderground v.1.15,2013-10-18 04:41:00,
2013-10-17 22:46:00,31.3,22.0,30.01,SW,234,3.0,7.0,68,0.00,,,0.00,Wunderground v.1.15,2013-10-18 04:46:00,
2013-10-17 22:51:00,31.2,22.2,30.01,SSW,196,3.0,8.0,69,0.00,,,0.00,Wunderground v.1.15,2013-10-18 04:51:00,
2013-10-17 22:56:00,31.1,22.5,30.02,South,173,0.0,8.0,70,0.00,,,0.00,Wunderground v.1.15,2013-10-18 04:56:00,
2013-10-17 23:01:00,31.0,22.7,30.02,South,182,0.0,3.0,71,0.00,,,0.00,Wunderground v.1.15,2013-10-18 05:01:00,
2013-10-17 23:06:00,30.9,22.9,30.02,South,191,2.0,3.0,72,0.00,,,0.00,Wunderground v.1.15,2013-10-18 05:06:00,
2013-10-17 23:11:00,30.7,23.1,30.02,WSW,244,0.0,6.0,73,0.00,,,0.00,Wunderground v.1.15,2013-10-18 05:11:00,
2013-10-17 23:16:00,30.4,23.4,30.02,SW,221,0.0,6.0,75,0.00,,,0.00,Wunderground v.1.15,2013-10-18 05:16:00,
2013-10-17 23:21:00,30.3,24.0,30.02,SW,221,1.0,2.0,77,0.00,,,0.00,Wunderground v.1.15,2013-10-18 05:21:00,
2013-10-17 23:26:00,30.1,24.1,30.02,SW,221,0.0,2.0,78,0.00,,,0.00,Wunderground v.1.15,2013-10-18 05:26:00,
2013-10-17 23:31:00,30.0,24.3,30.02,SW,221,0.0,1.0,79,0.00,,,0.00,Wunderground v.1.15,2013-10-18 05:31:00,
2013-10-17 23:36:00,29.9,24.5,30.01,SW,221,0.0,1.0,80,0.00,,,0.00,Wunderground v.1.15,2013-10-18 05:36:00,
2013-10-17 23:41:00,29.7,24.9,30.01,SW,221,0.0,0.0,82,0.00,,,0.00,Wunderground v.1.15,2013-10-18 05:41:00,
2013-10-17 23:46:00,29.6,25.1,30.01,SW,221,0.0,1.0,83,0.00,,,0.00,Wunderground v.1.15,2013-10-18 05:46:00,
2013-10-17 23:51:00,29.4,25.2,30.01,SW,221,0.0,0.0,84,0.00,,,0.00,Wunderground v.1.15,2013-10-18 05:51:00,
2013-10-17 23:56:00,29.3,25.4,30.01,SW,221,0.0,0.0,85,0.00,,,0.00,Wunderground v.1.15,2013-10-18 05:56:00,